When you browse on this site, cookies collect data to enhance your experience and personalize the content and advertising you see.
Visit our Privacy Policy to learn more. By continuing to use the site, you agree to this use of cookies and data.
  • în România
  • Lista ţărilor
  • Pe 7 zile
  • Temperatura apei
  • Meteo pe hartă
  • Widget-uri
  • user-avatar
    Intrare

    Meteo pe oră la Rawicz

    Astăzi, 24 August, Sâmbătă

    Timp Temperatura Precipitaţii Vânt Presiune Umiditate
    00:00 +18°C° 0 mm 2 m/s 760 mmHg 75%
    01:00 +18°C° 0 mm 2 m/s 760 mmHg 79%
    02:00 +18°C° 0 mm 2 m/s 760 mmHg 82%
    03:00 +18°C° 0 mm 2 m/s 760 mmHg 85%
    04:00 +17°C° 0 mm 2 m/s 760 mmHg 88%
    05:00 +18°C° 0 mm 3 m/s 759 mmHg 84%
    06:00 +19°C° 0 mm 3 m/s 759 mmHg 80%
    07:00 +20°C° 0 mm 3 m/s 759 mmHg 76%
    08:00 +21°C° 0 mm 4 m/s 759 mmHg 69%
    09:00 +23°C° 0 mm 4 m/s 759 mmHg 62%
    10:00 +26°C° 0 mm 4 m/s 760 mmHg 55%
    11:00 +26°C° 0 mm 4 m/s 759 mmHg 53%
    12:00 +27°C° 0 mm 4 m/s 759 mmHg 51%
    13:00 +28°C° 0 mm 5 m/s 758 mmHg 49%
    14:00 +28°C° 0 mm 5 m/s 758 mmHg 49%
    15:00 +28°C° 0 mm 5 m/s 758 mmHg 49%
    16:00 +28°C° 0 mm 5 m/s 758 mmHg 49%
    17:00 +27°C° 0 mm 4 m/s 758 mmHg 53%
    18:00 +25°C° 0 mm 4 m/s 758 mmHg 57%
    19:00 +23°C° 0 mm 4 m/s 757 mmHg 61%
    20:00 +22°C° 0 mm 4 m/s 758 mmHg 61%
    21:00 +21°C° 0 mm 4 m/s 758 mmHg 61%
    22:00 +21°C° 0 mm 4 m/s 758 mmHg 61%
    23:00 +20°C° 0 mm 4 m/s 758 mmHg 64%

    Mâine, 25 August, Duminică

    Timp Temperatura Precipitaţii Vânt Presiune Umiditate
    00:00 +20°C° 0 mm 4 m/s 758 mmHg 66%
    01:00 +19°C° 0 mm 3 m/s 758 mmHg 69%
    02:00 +19°C° 0 mm 4 m/s 757 mmHg 71%
    03:00 +19°C° 0 mm 4 m/s 757 mmHg 73%
    04:00 +18°C° 0 mm 4 m/s 757 mmHg 75%
    05:00 +19°C° 0 mm 4 m/s 757 mmHg 73%
    06:00 +19°C° 0 mm 4 m/s 757 mmHg 72%
    07:00 +20°C° 0 mm 5 m/s 757 mmHg 70%
    08:00 +21°C° 0 mm 5 m/s 757 mmHg 65%
    09:00 +23°C° 0 mm 5 m/s 757 mmHg 61%
    10:00 +25°C° 0 mm 5 m/s 757 mmHg 56%
    11:00 +27°C° 0 mm 5 m/s 757 mmHg 54%
    12:00 +28°C° 0 mm 5 m/s 757 mmHg 52%
    13:00 +29°C° 0 mm 5 m/s 756 mmHg 49%
    14:00 +29°C° 0 mm 5 m/s 756 mmHg 49%
    15:00 +29°C° 0 mm 4 m/s 756 mmHg 49%
    16:00 +30°C° 0 mm 4 m/s 756 mmHg 49%
    17:00 +28°C° 0 mm 4 m/s 756 mmHg 55%
    18:00 +27°C° 0 mm 4 m/s 756 mmHg 60%
    19:00 +25°C° 0 mm 3 m/s 756 mmHg 65%
    20:00 +25°C° 0 mm 3 m/s 756 mmHg 68%
    21:00 +24°C° 0 mm 3 m/s 756 mmHg 71%
    22:00 +22°C° 0 mm 3 m/s 756 mmHg 73%
    23:00 +22°C° 0 mm 3 m/s 756 mmHg 76%

    Poimâine, 26 August, Luni

    Timp Temperatura Precipitaţii Vânt Presiune Umiditate
    00:00 +21°C° 0 mm 3 m/s 756 mmHg 80%
    01:00 +21°C° 0 mm 3 m/s 756 mmHg 83%
    02:00 +20°C° 0 mm 3 m/s 756 mmHg 85%
    03:00 +20°C° 0 mm 3 m/s 755 mmHg 87%
    04:00 +20°C° 0 mm 3 m/s 755 mmHg 89%
    05:00 +20°C° 0 mm 3 m/s 755 mmHg 86%
    06:00 +21°C° 0 mm 3 m/s 755 mmHg 84%
    07:00 +22°C° 0 mm 3 m/s 756 mmHg 82%
    08:00 +24°C° 0 mm 3 m/s 756 mmHg 75%
    09:00 +26°C° 0 mm 3 m/s 756 mmHg 69%
    10:00 +28°C° 0 mm 3 m/s 756 mmHg 63%
    11:00 +29°C° 0 mm 3 m/s 756 mmHg 58%
    12:00 +30°C° 0 mm 3 m/s 756 mmHg 53%
    13:00 +31°C° 0 mm 3 m/s 755 mmHg 48%
    14:00 +31°C° 0 mm 3 m/s 755 mmHg 47%
    15:00 +31°C° 0 mm 3 m/s 755 mmHg 46%
    16:00 +33°C° 0 mm 3 m/s 755 mmHg 46%
    17:00 +30°C° 0 mm 3 m/s 755 mmHg 51%
    18:00 +28°C° 0 mm 3 m/s 754 mmHg 57%
    19:00 +27°C° 0 mm 3 m/s 754 mmHg 63%
    20:00 +26°C° 0 mm 3 m/s 755 mmHg 65%
    21:00 +25°C° 0 mm 3 m/s 755 mmHg 67%
    22:00 +24°C° 0 mm 2 m/s 755 mmHg 70%
    23:00 +24°C° 0 mm 2 m/s 755 mmHg 70%

    27 August, Marţi

    Timp Temperatura Precipitaţii Vânt Presiune Umiditate
    00:00 +24°C° 0 mm 2 m/s 755 mmHg 71%
    01:00 +23°C° 0 mm 2 m/s 755 mmHg 72%
    02:00 +23°C° 0 mm 2 m/s 755 mmHg 74%
    03:00 +23°C° 0 mm 2 m/s 755 mmHg 77%
    04:00 +21°C° 0 mm 2 m/s 755 mmHg 79%
    05:00 +23°C° 0 mm 2 m/s 755 mmHg 78%
    06:00 +24°C° 0 mm 2 m/s 755 mmHg 76%
    07:00 +25°C° 0 mm 3 m/s 755 mmHg 75%
    08:00 +27°C° 0 mm 3 m/s 755 mmHg 68%
    09:00 +28°C° 0 mm 3 m/s 755 mmHg 61%
    10:00 +30°C° 0 mm 3 m/s 755 mmHg 54%
    11:00 +31°C° 0 mm 3 m/s 755 mmHg 49%
    12:00 +32°C° 0 mm 2 m/s 755 mmHg 45%
    13:00 +35°C° 0 mm 2 m/s 755 mmHg 41%
    14:00 +35°C° 0 mm 2 m/s 755 mmHg 40%
    15:00 +35°C° 0 mm 2 m/s 754 mmHg 39%
    16:00 +35°C° 0 mm 2 m/s 754 mmHg 38%
    17:00 +32°C° 0 mm 2 m/s 754 mmHg 43%
    18:00 +30°C° 0 mm 2 m/s 754 mmHg 49%
    19:00 +29°C° 0 mm 2 m/s 754 mmHg 54%
    20:00 +27°C° 0.8 mm 2 m/s 754 mmHg 59%
    21:00 +26°C° 0.8 mm 3 m/s 754 mmHg 65%
    22:00 +25°C° 0.8 mm 3 m/s 754 mmHg 70%
    23:00 +25°C° 0.4 mm 3 m/s 754 mmHg 72%

    28 August, Miercuri

    Timp Temperatura Precipitaţii Vânt Presiune Umiditate
    00:00 +24°C° 0.4 mm 3 m/s 754 mmHg 74%
    01:00 +24°C° 0.4 mm 3 m/s 754 mmHg 76%
    02:00 +24°C° 0.2 mm 3 m/s 754 mmHg 78%
    03:00 +22°C° 0.2 mm 3 m/s 753 mmHg 79%
    04:00 +22°C° 0.2 mm 3 m/s 753 mmHg 81%
    05:00 +24°C° 0.2 mm 3 m/s 753 mmHg 79%
    06:00 +25°C° 0.2 mm 3 m/s 753 mmHg 77%
    07:00 +25°C° 0.2 mm 3 m/s 753 mmHg 75%
    08:00 +27°C° 0 mm 3 m/s 753 mmHg 68%
    09:00 +29°C° 0 mm 3 m/s 753 mmHg 61%
    10:00 +32°C° 0 mm 4 m/s 753 mmHg 54%
    11:00 +33°C° 0 mm 4 m/s 753 mmHg 48%
    12:00 +35°C° 0 mm 3 m/s 752 mmHg 42%
    13:00 +36°C° 0 mm 3 m/s 752 mmHg 36%
    14:00 +36°C° 0 mm 3 m/s 752 mmHg 35%
    15:00 +36°C° 0 mm 3 m/s 751 mmHg 35%
    16:00 +35°C° 0 mm 3 m/s 751 mmHg 35%
    17:00 +34°C° 0 mm 3 m/s 751 mmHg 40%
    18:00 +31°C° 0 mm 3 m/s 751 mmHg 44%
    19:00 +29°C° 0 mm 2 m/s 751 mmHg 49%
    20:00 +28°C° 0 mm 2 m/s 751 mmHg 51%
    21:00 +28°C° 0 mm 2 m/s 751 mmHg 52%
    22:00 +27°C° 0 mm 3 m/s 751 mmHg 54%
    23:00 +26°C° 0 mm 3 m/s 751 mmHg 58%

    29 August, Joi

    Timp Temperatura Precipitaţii Vânt Presiune Umiditate
    00:00 +25°C° 0 mm 3 m/s 751 mmHg 62%
    01:00 +25°C° 0 mm 3 m/s 751 mmHg 66%
    02:00 +25°C° 0 mm 3 m/s 751 mmHg 67%
    03:00 +24°C° 0 mm 3 m/s 750 mmHg 68%
    04:00 +24°C° 0 mm 3 m/s 750 mmHg 69%
    05:00 +25°C° 0 mm 3 m/s 750 mmHg 67%
    06:00 +25°C° 0 mm 3 m/s 750 mmHg 66%
    07:00 +26°C° 0 mm 3 m/s 750 mmHg 65%
    08:00 +28°C° 0 mm 3 m/s 750 mmHg 58%
    09:00 +30°C° 0 mm 3 m/s 751 mmHg 51%
    10:00 +33°C° 0 mm 3 m/s 751 mmHg 45%
    11:00 +34°C° 0 mm 3 m/s 750 mmHg 39%
    12:00 +35°C° 0 mm 3 m/s 750 mmHg 34%
    13:00 +36°C° 0 mm 3 m/s 750 mmHg 29%
    14:00 +36°C° 0 mm 3 m/s 750 mmHg 31%
    15:00 +35°C° 0 mm 3 m/s 750 mmHg 32%
    16:00 +35°C° 0 mm 3 m/s 750 mmHg 34%
    17:00 +32°C° 0 mm 2 m/s 750 mmHg 38%
    18:00 +30°C° 0 mm 2 m/s 750 mmHg 42%
    19:00 +28°C° 0 mm 1 m/s 750 mmHg 46%
    20:00 +27°C° 0 mm 2 m/s 750 mmHg 50%
    21:00 +26°C° 0 mm 3 m/s 750 mmHg 53%
    22:00 +25°C° 0 mm 4 m/s 751 mmHg 57%
    23:00 +24°C° 0 mm 3 m/s 750 mmHg 62%
    Arată mai mult